Pasco, WA
on Sunday, December 30, 2012

Sunday
Previous Day Next Day
Daily Summary
 ActualAverageRecord
Temperature
Mean Temperature °F 32°F  
Max Temperature 36°F 39°F 56°F (1998)
Min Temperature 22°F 26°F 4°F (2003)
Degree Days
Heating Degree Days 36 33  
Month to date heating degree days 773 957  
Since 1 July heating degree days 1870 2186  
Cooling Degree Days 0 0  
Month to date cooling degree days 0 0  
Year to date cooling degree days 788 710  
Moisture
Dew Point 27°F   
Average Humidity 84    
Maximum Humidity 92    
Minimum Humidity 75    
Precipitation
Precipitation 0.00 in in 0.64 in (2005)
Month to date precipitation 1.21  
Year to date precipitation 9.77  
Snow
Snow 0.00 in in in ()
Snow Depth 0.00 in   
Wind
Wind Speed 3 mph   
Max Wind Speed 10 mph   
Max Gust Speed 15 mph   
Visibility 8 miles   
Events     

Key: T is trace of precipitation, MM is missing value
Source: NWS Daily Summary
Time(PST)TemperatureDew PointHumidity Pressure Visibility Wind DirectionWind SpeedGust SpeedPrecipitationEvents Conditions
12:02 AM 30.2°F 28.4°F 93% 30.28 in 6.0 miles NW 5.8 mph - N/A   Overcast
12:53 AM 30.0°F 28.9°F 96% 30.30 in 8.0 miles NW 3.5 mph - N/A   Overcast
1:53 AM 30.0°F 28.0°F 92% 30.32 in 9.0 miles Calm Calm - N/A   Overcast
2:53 AM 30.0°F 28.9°F 96% 30.34 in 9.0 miles Calm Calm - N/A   Overcast
3:53 AM 30.9°F 28.9°F 92% 30.34 in 10.0 miles Calm Calm - N/A   Overcast
4:53 AM 30.9°F 28.9°F 92% 30.34 in 10.0 miles Calm Calm - N/A   Overcast
5:53 AM 30.0°F 28.9°F 96% 30.35 in 9.0 miles Calm Calm - N/A   Overcast
6:53 AM 30.0°F 28.9°F 96% 30.35 in 8.0 miles ENE 3.5 mph - N/A   Overcast
7:53 AM 30.0°F 28.0°F 92% 30.36 in 7.0 miles Calm Calm - N/A   Overcast
8:53 AM 30.9°F 28.9°F 92% 30.37 in 7.0 miles East 3.5 mph - N/A   Overcast
9:53 AM 32.0°F 30.0°F 92% 30.40 in 9.0 miles South 3.5 mph - N/A   Overcast
10:53 AM 33.1°F 28.9°F 85% 30.39 in 10.0 miles South 8.1 mph - N/A   Overcast
11:53 AM 34.0°F 30.0°F 85% 30.38 in 10.0 miles SSW 5.8 mph - N/A   Overcast
12:03 PM 33.8°F 28.4°F 81% 30.36 in 10.0 miles SW 5.8 mph - N/A   Overcast
12:53 PM 35.1°F 28.9°F 78% 30.38 in 10.0 miles SW 6.9 mph - N/A   Overcast
1:53 PM 35.1°F 28.9°F 78% 30.38 in 8.0 miles SSW 8.1 mph - N/A   Overcast
2:53 PM 35.1°F 28.9°F 78% 30.37 in 10.0 miles SSW 10.4 mph - N/A   Mostly Cloudy
3:53 PM 34.0°F 28.0°F 79% 30.38 in 6.0 miles SW 6.9 mph - N/A   Haze
4:53 PM 32.0°F 27.0°F 82% 30.39 in 6.0 miles SW 4.6 mph - N/A   Haze
5:53 PM 30.0°F 26.1°F 85% 30.38 in 6.0 miles WSW 3.5 mph - N/A   Scattered Clouds
6:53 PM 30.0°F 26.1°F 85% 30.40 in 8.0 miles Calm Calm - N/A   Clear
7:53 PM 28.0°F 25.0°F 88% 30.38 in 6.0 miles Calm Calm - N/A   Clear
8:53 PM 26.1°F 24.1°F 92% 30.38 in 6.0 miles Calm Calm - N/A   Clear
9:53 PM 25.0°F 23.0°F 92% 30.39 in 5.0 miles North 4.6 mph - N/A   Clear
10:53 PM 24.1°F 21.9°F 91% 30.40 in 7.0 miles Calm Calm - N/A   Clear
11:53 PM 21.9°F 19.9°F 92% 30.40 in 8.0 miles Calm Calm - N/A   Clear
Moon Phase
Dec. 30 Jan. 04 Jan. 11 Jan. 18 Jan. 26
Sunrise:07:39 AM (PST) Moon Rise:07:05 PM (PST)
Sunset:04:19 PM (PST) Moon Set:08:42 AM (PST)

Copyright © 2014 The Weather Underground, Inc.